TimeCST,TemperatureF,Dew PointF,Humidity,Sea Level PressureIn,VisibilityMPH,Wind Direction,Wind SpeedMPH,Gust SpeedMPH,PrecipitationIn,Events,Conditions,WindDirDegrees,DateUTC
12:53 AM,27.0,19.0,72,30.22,10.0,NW,15.0,-,N/A,,Mostly Cloudy,320,2013-01-06 06:53:00
1:53 AM,26.1,19.0,75,30.24,10.0,NW,12.7,-,N/A,,Overcast,320,2013-01-06 07:53:00
2:53 AM,24.1,17.1,75,30.26,9.0,NW,16.1,-,N/A,,Partly Cloudy,320,2013-01-06 08:53:00
3:36 AM,21.2,15.8,80,30.27,10.0,NNW,18.4,-,N/A,,Mostly Cloudy,330,2013-01-06 09:36:00
3:53 AM,21.9,16.0,78,30.30,10.0,NNW,20.7,26.5,N/A,,Overcast,330,2013-01-06 09:53:00
4:53 AM,23.0,17.1,78,30.31,10.0,NNW,18.4,-,N/A,,Overcast,330,2013-01-06 10:53:00
5:53 AM,23.0,17.1,78,30.32,10.0,NNW,10.4,-,N/A,,Overcast,330,2013-01-06 11:53:00
6:33 AM,21.2,15.8,80,30.31,10.0,WNW,4.6,-,N/A,,Scattered Clouds,300,2013-01-06 12:33:00
6:53 AM,19.9,15.1,81,30.35,10.0,West,4.6,-,N/A,,Clear,280,2013-01-06 12:53:00
7:53 AM,19.0,15.1,85,30.37,9.0,WSW,4.6,-,N/A,,Clear,240,2013-01-06 13:53:00
8:53 AM,21.9,17.1,82,30.39,10.0,West,4.6,-,N/A,,Clear,280,2013-01-06 14:53:00
9:53 AM,25.0,18.0,75,30.40,10.0,West,8.1,-,N/A,,Clear,280,2013-01-06 15:53:00
10:53 AM,28.0,19.0,69,30.42,10.0,WNW,4.6,-,N/A,,Clear,290,2013-01-06 16:53:00
11:53 AM,30.0,19.9,66,30.39,10.0,WSW,6.9,-,N/A,,Clear,250,2013-01-06 17:53:00
12:53 PM,32.0,21.0,64,30.37,10.0,SW,5.8,-,N/A,,Clear,230,2013-01-06 18:53:00
1:53 PM,35.1,19.9,54,30.35,10.0,SW,3.5,-,N/A,,Clear,230,2013-01-06 19:53:00
3:53 PM,36.0,21.9,57,30.34,10.0,SSW,6.9,-,N/A,,Clear,200,2013-01-06 21:53:00
4:53 PM,35.1,21.9,59,30.34,10.0,South,5.8,-,N/A,,Clear,190,2013-01-06 22:53:00
5:53 PM,30.9,21.0,67,30.34,10.0,SSE,3.5,-,N/A,,Clear,150,2013-01-06 23:53:00
6:53 PM,28.0,21.9,78,30.35,10.0,SSE,5.8,-,N/A,,Clear,160,2013-01-07 00:53:00
7:53 PM,26.1,19.0,75,30.34,10.0,South,6.9,-,N/A,,Clear,170,2013-01-07 01:53:00
9:53 PM,27.0,19.0,72,30.30,10.0,South,5.8,-,N/A,,Clear,170,2013-01-07 03:53:00
10:53 PM,26.1,19.0,75,30.29,10.0,South,4.6,-,N/A,,Clear,190,2013-01-07 04:53:00
11:53 PM,28.9,19.0,67,30.28,10.0,South,6.9,-,N/A,,Clear,190,2013-01-07 05:53:00